STARLINK-1666, 46357

Orbit data source: Space-Track

STARLINK-1666, 46357 is a payload satellite owned by SpaceX/Seattle (US) in LEO that was launched on Thu, 03 Sep 2020 UTC via an FALCON 9 launch vehicle from the Air Force Eastern Test Range (AFETR). Payload-class satellites include a variety of spacecraft equipped with specific instruments for various scientific and technological missions. These include communications satellites like Starlink; space stations such as the ISS; scientific satellites like the Hubble; Earth observation satellites from companies like Planet Labs, Umbra, and HawkEye 360; GPS; miniature CubeSats for education and research; and military/defense satellites.

Loading next visibility...
Identifier
46357, 2020-062AJ
Orbit
LEO
Country
Flag of USUS
Related business
Manufacturer
SpaceX/Seattle
Mission
Partially operational Commercial Communications
Bus & Motor
STARLINK, Unknown motor
Mass
260 kg wet, ~248 kg dry
Launch date (UTC)
2020-09-03 (6 years ago)
Launch vehicle
FALCON 9
Launch site
Air Force Eastern Test Range (AFETR)
Object type
Payload
Rocket body
Debris
Shape & HBR
Box + 1 Pan, 10.1 m
Radar Cross Section
13.562 m², Large (>1 m²)

Expand to show TLE details & history
Last TLE update: 6 hours ago

TLE from 6 hours ago
0 STARLINK-1666
1 46357U 20062AJ  26123.66670139  .00173091  00000-0  13020-2 0  9996
2 46357  53.0408  64.6491 0004310  71.6706 221.6778 15.71507180  5870
Epoch: 2026-05-03T16:00Z
TLE epoch observation values (Epoch: 2026-05-03T16:00:03.000Z)
Latitude
-47.39196°
Longitude
-91.36556°
Altitude
372.932 km
Speed
7.684 km/s
True Right ascension
00h 40m 51s
True Declination
-47° 12' 39"
Sunlit
Object was in daylight at epoch
Visualization orbit readout
Latitude
Unknown
Longitude
Unknown
Altitude
Unknown
Speed
Unknown
Apparent Right ascension
Unknown
Apparent Declination
Unknown
Sunlit
N/A
Visualization observer readout
Local Sidereal Time
05:49:32
Azimuth
Unknown
Elevation
Unknown
Doppler factor
Unknown
Orbital elements
Apogee altitude
357.771 km
Perigee altitude
351.967 km
Semi-major axis
6,733.006 km
Eccentricity
0.00043
Inclination
53.0408°
RAAN
64.6491°
Arg. of periapsis
71.6706°
True anomaly
221.64497°
Mean anomaly
221.6778°
Eccentric anomaly
221.66138°
Mean motion
3.92853 °/min
Orbital period
91.64 mins
BSTAR
0.001302
Loading maneuver chart data...
Computing Atmospheric mass density...

Documentation

Showing up to 5 results
|